This is the latest recevied weather packets stored in our database for station/object K4ROM-1. If no packets are shown the sender has not sent any weather packets the latest 10 day(s).
| Time | Temp. | Humidity | Pressure | Rain* | Wind** | Luminosity | Snow |
|---|---|---|---|---|---|---|---|
| 1777946404 | 16.67° C | 49% | 1016.1 hPa | 0 mm | 0 m/s | - | - |
| 1777945203 | 17.22° C | 49% | 1016 hPa | 0 mm | 0 m/s | - | - |
| 1777944603 | 17.22° C | 48% | 1015.9 hPa | 0 mm | 0 m/s | - | - |
| 1777944003 | 17.78° C | 46% | 1015.6 hPa | 0 mm | 0 m/s | - | - |
| 1777943404 | 17.78° C | 45% | 1015.5 hPa | 0 mm | 0 m/s | - | - |
| 1777942803 | 18.33° C | 45% | 1015.6 hPa | 0 mm | 0 m/s | - | - |
| 1777942202 | 18.89° C | 45% | 1015.6 hPa | 0 mm | 0 m/s | - | - |
| 1777941603 | 18.89° C | 44% | 1015.2 hPa | 0 mm | 0 m/s | - | - |
| 1777941003 | 19.44° C | 44% | 1015.2 hPa | 0 mm | 0 m/s | - | - |
| 1777940403 | 19.44° C | 44% | 1015.1 hPa | 0 mm | 0 m/s | - | - |
| 1777939803 | 20° C | 42% | 1015.3 hPa | 0 mm | 0 m/s | - | - |
| 1777939203 | 20.56° C | 41% | 1014.9 hPa | 0 mm | 0 m/s | - | - |
| 1777938603 | 21.67° C | 39% | 1014.8 hPa | 0 mm | 0 m/s | - | - |
| 1777938003 | 22.22° C | 37% | 1014.6 hPa | 0 mm | 0 m/s | - | - |
| 1777937403 | 22.78° C | 34% | 1014.9 hPa | 0 mm | 0 m/s | - | - |
| 1777936803 | 23.33° C | 31% | 1014.9 hPa | 0 mm | 0 m/s | - | - |
| 1777936202 | 23.89° C | 30% | 1014.7 hPa | 0 mm | 0.45 m/s, 254° | - | - |
| 1777935603 | 24.44° C | 29% | 1014.3 hPa | 0 mm | 0 m/s | - | - |
| 1777935003 | 24.44° C | 28% | 1014.3 hPa | 0 mm | 0 m/s | - | - |
| 1777934404 | 25° C | 28% | 1014.5 hPa | 0 mm | 0.45 m/s, 271° | - | - |
| 1777933803 | 25.56° C | 27% | 1014.5 hPa | 0 mm | 0 m/s | - | - |
| 1777933203 | 26.11° C | 27% | 1014.5 hPa | 0 mm | 0.45 m/s, 287° | - | - |
| 1777932602 | 26.11° C | 26% | 1014.4 hPa | 0 mm | 0.45 m/s, 227° | - | - |
| 1777932003 | 26.11° C | 28% | 1014.4 hPa | 0 mm | 1.34 m/s, 243° | - | - |
| 1777931403 | 26.11° C | 28% | 1014.5 hPa | 0 mm | 0 m/s | - | - |
* Rain latest hour (hover to see other rain measurements)
** Current wind speed in m/s (hover to see current wind gust speed)